Temp
8 8 8 8 8 9 9 9 9 10 10 10 10 10 11 11 11 12 12 13 14 14 14 15 15 16 16 17 17 17 12 12 16 16 16 17 17 19 19 19 19 19 19 19 18
8 7 8 8 8 8 8 9 9 9 9 10 10 10 10 10 11 11 13 13 13 13 13 14 14 15 16 16 16 15 11 13 15 16 16 17 17 17 18 18 19 19 19 19 18
7 7 8 8 8 8 8 8 9 9 9 9 10 9 9 10 10 11 12 13 13 12 13 13 13 14 14 15 15 14 12 13 15 17 17 17 17 17 17 17 18 18 18 18 18
7 7 8 8 8 8 8 8 8 8 8 9 9 9 9 9 9 11 11 12 13 13 12 12 12 13 13 13 15 14 15 15 15 16 16 16 17 17 17 18 18 18 18 17 17
7 7 7 7 7 7 7 8 8 8 8 8 8 9 8 8 10 11 11 12 12 12 11 12 12 13 12 13 13 13 14 15 15 15 15 16 15 15 16 17 18 18 18 18 17
7 6 6 6 7 7 7 7 8 8 8 8 8 8 8 7 10 11 11 10 10 11 11 11 12 12 12 12 12 13 13 14 15 16 15 14 15 15 16 17 17 17 18 18 18
6 6 6 6 6 6 7 7 7 8 8 8 8 7 7 8 9 10 10 11 11 11 11 11 11 12 11 13 12 13 12 12 14 15 14 15 13 12 17 17 17 17 17 18 18
6 6 6 6 6 6 6 7 7 7 7 7 7 6 6 9 9 9 10 11 11 11 11 11 11 11 11 12 12 12 11 11 12 13 15 14 13 14 17 17 17 17 17 17 18
5 6 6 6 6 6 6 6 7 7 7 7 6 6 7 8 9 10 10 11 11 10 10 11 11 11 11 10 10 10 9 10 11 13 13 12 12 14 16 15 15 16 16 17 17
5 5 5 5 5 6 6 6 6 6 6 6 6 6 7 9 9 10 10 10 9 10 10 10 10 9 10 11 11 12 10 10 10 12 12 10 10 10 15 14 15 15 16 17 17
5 5 5 5 5 5 5 4 4 4 5 6 7 8 9 8 8 9 10 9 9 10 9 9 9 9 9 11 10 10 10 9 10 11 11 10 10 11 13 13 13 15 16 16 17
5 5 5 5 5 5 5 4 5 6 5 6 6 8 8 8 8 9 9 9 9 9 9 8 9 10 11 11 11 10 10 11 10 10 10 9 11 10 11 12 14 15 15 16 17
4 4 5 4 5 4 4 4 5 6 6 6 6 7 7 8 8 8 9 9 9 7 8 9 10 10 9 8 8 8 8 9 9 10 9 9 10 10 11 13 14 14 15 16 16
4 4 4 4 3 4 3 4 5 6 4 5 5 6 7 7 8 9 9 9 8 8 7 8 10 9 7 9 8 9 8 8 8 9 9 9 9 11 11 12 11 13 15 15 16
4 4 4 3 3 3 4 4 4 5 3 5 4 7 7 7 7 7 8 9 7 7 8 8 7 8 7 9 8 10 9 8 8 7 7 8 8 10 11 9 11 12 15 16 16
3 3 3 3 3 3 4 4 4 3 4 3 5 6 6 7 8 7 8 8 8 7 7 7 7 8 8 8 8 9 9 8 7 8 8 8 7 10 10 11 12 12 14 13 14
3 3 2 3 2 3 3 3 3 4 3 2 5 6 6 7 7 7 6 7 7 7 7 7 7 6 8 8 7 8 8 8 8 8 9 9 7 11 11 11 10 11 14 12 11
2 3 2 2 2 2 2 2 3 1 1 4 4 6 6 6 7 8 7 7 8 7 7 7 7 7 6 8 7 7 8 7 7 6 8 7 7 9 10 11 12 13 13 10 9
2 1 1 1 1 1 2 2 3 0 4 4 5 4 5 7 6 7 7 7 8 8 8 6 7 6 6 7 9 7 7 9 6 4 7 6 7 9 9 9 10 9 9 7 7
0 0 0 1 1 1 1 3 -0 3 4 5 3 5 5 6 6 6 7 8 7 8 9 7 6 5 6 8 8 8 7 7 7 8 7 8 6 8 9 10 8 6 5 5 5
-0 -0 0 0 1 1 2 2 -2 3 6 4 4 3 5 5 6 6 6 7 8 8 9 8 7 6 5 6 8 7 8 8 6 7 8 6 7 7 9 8 6 5 3 3 3
-0 -0 0 0 1 0 2 1 4 2 4 4 4 4 3 5 6 7 6 6 8 9 7 9 6 5 6 6 7 9 8 9 8 6 6 6 9 9 9 7 6 3 3 3 3
-1 -1 -0 0 1 1 0 1 1 2 2 3 2 4 4 5 3 6 6 7 8 8 7 7 6 5 6 5 6 7 8 8 9 7 7 7 7 6 6 4 4 3 2 4 5
-1 -0 0 -0 0 0 0 0 1 2 3 3 4 4 4 4 5 4 5 6 8 7 8 7 7 6 8 7 6 7 7 7 8 7 8 8 8 6 5 3 3 3 3 2 2
-1 -1 -0 0 -0 0 -0 -0 1 1 2 3 3 3 3 2 3 3 4 5 5 7 7 7 6 6 7 6 5 6 7 7 8 8 7 8 7 8 6 4 3 4 3 2 1
-1 -1 -1 -1 1 -0 1 0 1 1 1 1 2 3 3 4 5 5 4 4 5 4 6 5 6 6 6 5 5 6 6 7 7 8 8 6 6 7 7 4 2 1 1 0 0
-1 -1 0 -0 -0 0 1 -0 1 2 2 4 2 2 3 4 6 7 7 6 5 6 4 4 4 5 6 6 5 5 6 7 8 8 8 7 8 5 4 2 -0 -2 -1 -1 -1
Height
1519 1522 1523 1527 1529 1529 1532 1533 1535 1537 1539 1541 1543 1545 1546 1547 1548 1550 1552 1554 1553 1554 1555 1556 1557 1556 1556 1555 1554 1555 1564 1569 1560 1559 1558 1555 1553 1553 1553 1552 1551 1551 1550 1551 1549
1515 1519 1522 1524 1525 1527 1530 1531 1533 1535 1537 1539 1541 1543 1544 1546 1546 1547 1550 1551 1552 1553 1555 1556 1557 1557 1557 1556 1556 1556 1567 1563 1557 1556 1556 1554 1554 1554 1554 1553 1552 1551 1550 1549 1549
1512 1515 1517 1519 1523 1525 1528 1530 1532 1533 1535 1537 1539 1541 1542 1544 1546 1543 1545 1546 1549 1551 1554 1556 1557 1558 1557 1556 1556 1557 1561 1556 1556 1555 1555 1555 1554 1554 1554 1554 1552 1552 1550 1549 1549
1505 1509 1513 1515 1518 1523 1525 1528 1529 1531 1534 1536 1537 1538 1541 1542 1549 1541 1542 1541 1544 1548 1552 1554 1556 1558 1557 1556 1555 1558 1555 1555 1556 1555 1554 1554 1553 1554 1553 1552 1552 1551 1550 1549 1548
1500 1503 1506 1510 1515 1519 1523 1525 1526 1529 1532 1534 1535 1536 1538 1541 1540 1541 1541 1540 1541 1545 1549 1553 1555 1556 1556 1555 1555 1556 1555 1554 1554 1554 1553 1552 1552 1553 1548 1550 1551 1549 1548 1547 1546
1495 1499 1503 1507 1512 1515 1519 1522 1524 1526 1530 1532 1533 1534 1536 1539 1538 1539 1540 1543 1544 1546 1548 1551 1553 1554 1555 1555 1556 1555 1555 1554 1553 1551 1551 1550 1549 1549 1545 1547 1546 1545 1545 1543 1542
1492 1496 1501 1504 1508 1512 1516 1518 1521 1523 1527 1530 1531 1531 1532 1533 1534 1536 1538 1542 1544 1546 1547 1549 1551 1554 1554 1554 1554 1553 1555 1553 1552 1550 1549 1548 1548 1547 1544 1544 1542 1541 1542 1541 1539
1487 1493 1497 1500 1504 1509 1512 1514 1518 1520 1524 1527 1529 1530 1528 1529 1531 1534 1536 1539 1541 1544 1546 1547 1549 1552 1552 1553 1554 1553 1555 1559 1550 1549 1547 1548 1545 1542 1541 1541 1539 1538 1538 1537 1536
1483 1488 1492 1496 1501 1505 1510 1512 1514 1517 1522 1525 1527 1529 1527 1524 1526 1531 1534 1537 1539 1541 1543 1546 1548 1549 1551 1553 1558 1556 1562 1560 1556 1548 1548 1547 1543 1538 1538 1538 1537 1535 1535 1534 1533
1479 1484 1489 1492 1498 1502 1506 1508 1512 1514 1521 1522 1524 1529 1523 1519 1520 1525 1531 1534 1537 1539 1543 1544 1546 1547 1547 1550 1551 1552 1558 1557 1559 1550 1546 1547 1539 1538 1537 1535 1534 1533 1532 1530 1529
1474 1479 1484 1488 1494 1498 1502 1505 1512 1516 1514 1513 1514 1516 1512 1517 1518 1521 1527 1532 1535 1537 1540 1541 1545 1543 1546 1546 1549 1551 1555 1558 1556 1551 1551 1546 1537 1535 1533 1532 1531 1529 1527 1525 1522
1468 1474 1479 1484 1490 1494 1497 1499 1505 1508 1510 1511 1513 1514 1514 1515 1518 1520 1524 1530 1532 1533 1536 1543 1538 1539 1540 1541 1544 1548 1550 1551 1555 1552 1551 1547 1531 1531 1530 1528 1527 1524 1521 1519 1517
1463 1470 1475 1481 1487 1490 1493 1499 1505 1507 1508 1508 1508 1510 1513 1516 1514 1517 1519 1524 1527 1533 1535 1535 1533 1534 1540 1544 1548 1550 1553 1555 1556 1552 1547 1547 1525 1526 1521 1519 1516 1517 1514 1512 1511
1458 1464 1471 1478 1485 1484 1490 1497 1503 1507 1513 1505 1502 1500 1507 1513 1512 1512 1515 1522 1527 1529 1536 1536 1532 1534 1539 1540 1546 1548 1548 1551 1554 1556 1555 1545 1535 1521 1519 1513 1511 1509 1509 1505 1503
1453 1459 1466 1472 1472 1478 1486 1495 1501 1508 1516 1486 1489 1491 1496 1502 1504 1509 1513 1517 1521 1524 1530 1527 1527 1530 1535 1535 1543 1542 1544 1548 1550 1553 1553 1548 1552 1511 1512 1514 1505 1503 1500 1500 1500
1448 1455 1462 1466 1470 1477 1486 1493 1500 1503 1494 1486 1481 1482 1491 1495 1501 1506 1512 1515 1518 1523 1524 1525 1525 1527 1528 1532 1536 1540 1544 1547 1550 1550 1546 1541 1549 1516 1515 1506 1501 1500 1499 1497 1497
1443 1450 1456 1460 1463 1474 1482 1490 1497 1487 1480 1484 1476 1479 1484 1489 1496 1499 1508 1509 1512 1520 1518 1522 1524 1525 1527 1533 1535 1538 1544 1546 1548 1544 1536 1529 1538 1511 1503 1500 1499 1497 1498 1500 1500
1437 1445 1450 1455 1461 1470 1477 1483 1476 1475 1479 1470 1471 1476 1480 1486 1488 1493 1501 1503 1504 1507 1511 1518 1522 1521 1519 1522 1531 1534 1539 1547 1547 1547 1537 1532 1528 1508 1497 1495 1494 1495 1495 1502 1503
1433 1438 1444 1448 1457 1465 1470 1464 1458 1465 1460 1467 1471 1477 1480 1479 1484 1491 1491 1494 1494 1498 1504 1515 1512 1510 1512 1514 1521 1530 1531 1526 1541 1551 1540 1534 1518 1501 1495 1495 1494 1496 1500 1501 1503
1423 1431 1435 1443 1453 1460 1460 1451 1459 1453 1454 1460 1469 1467 1470 1474 1483 1486 1488 1480 1488 1493 1496 1502 1513 1509 1510 1513 1515 1517 1519 1530 1533 1532 1530 1523 1526 1508 1497 1494 1496 1501 1502 1504 1506
1417 1423 1426 1438 1448 1449 1442 1447 1454 1450 1452 1459 1463 1467 1466 1470 1474 1479 1477 1476 1478 1486 1493 1498 1502 1511 1510 1504 1504 1515 1516 1518 1525 1525 1520 1534 1515 1496 1494 1494 1498 1502 1503 1504 1506
1408 1415 1420 1431 1436 1434 1436 1444 1445 1449 1452 1456 1458 1460 1465 1467 1468 1471 1473 1472 1471 1478 1485 1490 1500 1507 1500 1499 1500 1500 1501 1507 1513 1525 1521 1519 1500 1492 1490 1496 1486 1496 1502 1503 1506
1402 1411 1418 1424 1423 1428 1435 1439 1443 1447 1450 1453 1458 1458 1460 1462 1475 1467 1469 1468 1470 1475 1477 1487 1492 1504 1496 1502 1499 1497 1500 1500 1503 1509 1509 1513 1501 1496 1494 1495 1497 1495 1499 1497 1502
1399 1406 1412 1417 1422 1426 1432 1437 1442 1444 1446 1450 1452 1457 1462 1461 1460 1462 1464 1466 1467 1470 1474 1479 1481 1479 1473 1479 1484 1490 1491 1493 1496 1502 1492 1494 1494 1499 1498 1496 1498 1499 1500 1501 1501
1394 1400 1402 1408 1419 1424 1430 1431 1436 1442 1446 1449 1452 1454 1458 1465 1462 1462 1462 1465 1466 1467 1470 1475 1473 1477 1474 1478 1478 1475 1477 1484 1486 1481 1491 1481 1488 1488 1494 1495 1494 1495 1496 1496 1498
1390 1397 1403 1407 1414 1425 1427 1430 1431 1435 1440 1449 1449 1448 1453 1452 1452 1456 1460 1463 1464 1469 1468 1473 1466 1469 1469 1474 1476 1475 1472 1472 1473 1476 1478 1484 1485 1479 1487 1493 1495 1494 1496 1497 1497
1391 1396 1401 1408 1415 1423 1422 1427 1431 1435 1437 1438 1439 1446 1447 1442 1445 1447 1449 1452 1455 1459 1466 1471 1468 1459 1454 1462 1470 1472 1460 1463 1464 1468 1468 1474 1467 1477 1483 1489 1493 1493 1490 1492 1492
Wind_Speed
20 20 18 19 18 15 14 15 16 18 18 18 16 15 14 13 15 16 16 14 13 13 13 12 7 5 6 2 3 3 4 1 2 2 4 4 5 5 4 5 3 3 4 6 3
24 23 22 21 17 18 15 14 14 15 16 17 17 15 14 13 13 18 19 17 15 13 11 10 9 6 2 2 1 2 3 7 3 1 1 6 4 7 6 8 3 4 6 6 5
27 28 26 23 22 19 18 16 14 12 13 14 15 15 13 10 11 13 16 19 20 16 12 9 6 5 3 2 2 3 4 4 2 2 1 3 7 5 3 3 2 8 10 11 8
26 28 29 26 24 22 19 18 16 13 11 12 13 14 12 8 5 2 4 11 19 21 13 8 5 3 2 2 3 1 5 4 1 1 2 4 4 3 9 11 11 15 15 16 15
20 21 23 26 24 24 22 19 15 15 13 12 12 12 13 11 14 5 6 2 8 21 17 10 8 5 3 3 2 3 4 8 11 11 13 12 10 7 16 18 14 17 18 18 17
20 20 21 23 21 21 22 20 18 15 15 12 13 12 14 10 15 16 8 2 4 12 17 16 7 7 4 3 3 2 5 9 8 12 9 5 5 5 12 17 22 21 20 21 23
22 22 22 22 23 22 20 20 20 17 14 14 14 14 15 20 9 16 21 15 6 5 7 14 17 5 1 2 2 4 3 6 6 12 4 6 4 7 18 19 21 18 18 18 21
25 25 22 20 18 19 20 19 19 19 16 14 13 13 8 13 22 12 16 18 17 12 8 7 14 13 5 3 3 1 3 1 4 5 10 5 11 11 22 23 28 29 23 18 19
24 26 24 22 20 18 19 19 18 19 19 15 15 12 6 9 20 21 14 15 12 11 9 5 11 9 5 3 2 3 4 3 6 4 4 6 3 5 14 15 19 24 21 22 22
26 24 26 22 20 17 15 16 16 18 18 15 12 8 11 13 17 28 22 15 9 12 7 8 7 3 4 6 12 10 5 3 4 4 1 8 14 8 20 20 17 19 21 24 29
28 28 24 23 21 19 18 17 10 6 20 12 9 13 2 17 13 15 29 19 11 13 5 5 5 10 10 12 7 3 3 2 2 5 4 9 15 12 21 18 19 22 24 26 32
26 26 26 24 22 20 23 24 17 3 7 29 7 26 9 14 8 14 26 17 12 6 7 2 12 8 3 8 12 9 12 16 4 8 5 7 20 10 13 16 24 29 32 34 37
28 27 26 25 22 25 28 27 18 6 1 9 33 19 16 16 10 18 24 19 6 7 9 12 3 14 8 4 5 5 6 4 9 5 6 6 21 11 7 16 29 29 34 33 33
26 25 26 26 27 30 28 25 20 10 3 5 10 20 24 13 7 15 24 23 6 14 7 10 16 3 5 12 7 14 7 6 4 2 9 3 11 14 10 17 14 24 30 35 33
28 28 28 33 22 35 31 25 19 16 4 8 9 12 31 21 17 17 26 22 9 7 8 7 7 13 9 11 8 7 6 8 6 5 5 5 5 9 1 9 14 16 28 30 29
29 30 28 35 25 32 29 26 21 4 9 3 9 14 15 21 9 18 17 12 9 4 1 3 1 6 5 6 13 3 2 3 3 3 8 6 7 11 4 6 3 7 19 19 14
35 31 34 37 28 25 30 28 6 9 2 5 8 10 20 15 17 10 13 14 9 11 14 6 6 2 4 4 2 4 4 2 3 5 8 3 7 15 12 5 9 15 18 6 14
36 35 36 35 31 28 31 8 10 7 9 1 7 11 17 9 19 18 14 16 19 3 6 11 8 13 9 14 7 10 9 5 4 4 4 2 6 6 8 15 17 18 11 15 18
33 35 37 38 36 33 26 12 12 6 10 7 12 9 13 16 6 16 22 20 19 18 11 8 9 2 3 5 15 5 12 13 2 1 5 5 7 9 8 7 7 3 15 21 21
36 36 37 39 39 41 13 16 5 5 6 7 8 7 13 16 10 19 15 15 19 23 10 5 1 4 6 3 4 6 7 4 6 6 7 2 6 9 5 6 3 10 20 24 21
35 19 27 41 40 32 13 8 4 9 8 8 8 6 7 10 17 13 8 10 23 17 28 5 2 2 5 11 15 5 6 3 2 3 2 3 6 6 4 5 9 15 19 21 19
23 6 26 44 16 7 12 8 13 4 11 4 3 5 8 10 12 15 15 14 17 23 25 19 4 5 13 1 5 16 12 16 6 5 4 2 12 2 3 7 27 22 21 19 16
18 7 35 47 11 4 5 5 7 7 4 7 6 5 4 10 4 18 11 15 9 19 16 13 9 4 4 3 1 9 11 14 14 2 12 4 5 5 10 12 12 21 19 19 14
12 4 11 27 17 7 7 7 6 7 6 3 4 8 4 6 8 9 13 7 22 18 26 24 9 11 14 4 9 11 14 18 16 7 12 17 6 4 3 9 13 18 16 13 11
8 3 6 7 11 3 4 7 13 6 3 18 5 10 14 8 4 5 4 4 1 14 21 13 10 16 17 4 7 11 19 21 20 23 10 11 16 7 10 11 17 18 12 7 3
6 6 5 6 20 12 13 6 12 5 8 4 8 14 11 15 17 10 7 5 7 4 9 3 7 18 20 11 8 5 16 20 25 23 19 4 6 7 11 14 13 13 11 8 3
9 10 8 11 9 13 10 7 16 7 11 17 21 12 10 21 25 22 22 15 5 11 14 9 5 4 20 9 8 8 21 19 19 20 20 16 17 3 9 13 11 9 9 4 2
Wind_Direction
228 231 231 232 230 228 229 230 231 230 230 234 240 245 249 256 260 256 253 246 252 263 276 281 302 319 323 353 6 3 54 208 223 109 271 352 23 22 331 344 3 331 318 312 294
237 236 235 235 232 230 229 227 228 228 230 231 233 239 246 253 264 262 256 249 250 258 280 289 294 300 303 305 359 95 124 218 186 246 305 329 6 338 349 341 342 352 340 330 288
240 242 238 236 233 231 230 228 226 226 227 228 229 232 236 250 282 276 269 252 237 245 260 271 290 294 268 292 197 170 197 205 246 140 337 282 313 319 333 327 302 321 326 324 288
236 240 237 233 232 232 231 229 221 225 230 226 225 225 225 217 219 176 273 256 226 222 228 245 238 238 221 234 228 244 246 261 273 268 284 269 271 267 275 261 285 301 291 301 285
229 230 225 225 227 228 229 229 223 224 229 225 224 220 212 201 220 198 61 54 214 206 205 207 207 200 195 224 290 216 272 291 292 275 269 267 253 245 255 279 287 297 289 295 288
227 228 217 219 223 223 225 226 226 223 223 221 223 218 210 215 235 212 221 351 94 196 208 213 218 217 237 234 182 296 284 285 298 285 278 249 256 228 267 284 292 291 287 291 287
229 225 220 221 224 229 226 225 224 222 222 221 221 221 216 225 226 225 236 230 181 208 205 223 214 196 181 267 273 267 315 319 267 269 271 289 280 236 277 284 283 283 298 301 289
226 224 220 216 220 226 227 225 222 219 219 218 217 220 232 244 229 212 215 223 232 223 231 233 222 232 214 254 325 27 92 246 277 240 264 201 262 255 274 272 275 284 292 301 307
225 223 225 224 226 224 221 218 220 214 215 210 208 206 243 231 226 203 202 203 213 218 205 197 198 214 188 166 293 244 238 218 311 253 278 204 275 271 305 303 279 279 280 293 307
229 225 220 218 211 208 207 209 208 208 210 201 217 192 222 226 221 201 198 199 200 194 188 188 186 177 181 198 229 239 232 177 220 304 283 281 276 273 297 294 270 277 287 294 294
227 224 221 216 217 213 198 186 177 205 203 198 212 203 240 210 202 195 202 207 202 190 175 179 201 210 208 229 241 256 231 284 338 274 307 276 285 290 292 292 280 275 278 284 285
221 221 221 218 211 202 204 193 190 173 198 216 235 213 229 180 197 216 196 193 193 181 153 148 232 224 252 231 232 241 259 259 256 260 280 268 280 281 274 266 275 277 279 280 285
218 220 217 211 201 201 204 203 194 159 313 223 220 221 197 186 197 196 188 194 181 174 188 221 168 199 194 203 195 204 219 224 244 292 271 284 280 264 256 258 266 269 275 276 274
224 217 212 203 200 202 205 199 192 183 339 240 199 226 209 193 239 198 194 186 208 208 155 241 242 154 181 221 191 244 196 212 221 266 272 135 291 276 277 276 263 267 272 272 274
225 218 211 201 197 196 200 188 185 179 235 204 183 196 198 184 143 189 188 189 180 164 170 223 179 192 200 211 182 242 175 199 201 217 320 206 253 283 57 285 273 254 265 273 279
220 211 205 200 201 200 195 185 190 187 223 180 150 178 164 190 173 164 189 189 190 154 288 222 151 184 205 177 185 156 158 48 43 156 247 175 194 270 266 233 269 284 303 298 290
216 213 204 203 185 181 186 172 181 212 339 219 184 183 183 186 192 166 177 190 171 193 220 195 195 187 165 126 111 152 154 238 216 220 255 208 210 250 274 261 247 272 283 120 118
213 210 204 205 195 179 177 183 213 203 207 248 164 159 194 161 210 201 177 205 210 184 180 201 229 187 181 202 174 198 192 207 215 208 256 53 235 253 240 279 283 292 179 121 101
208 206 205 204 201 189 182 207 201 185 168 155 143 164 195 199 160 195 207 211 212 200 200 181 231 103 192 155 171 186 210 220 298 115 276 235 283 290 269 309 349 359 131 114 112
201 200 204 203 196 189 204 208 212 184 156 160 175 170 187 194 189 189 192 213 209 201 192 204 283 212 183 145 164 182 157 166 192 234 235 229 280 241 292 323 27 82 100 107 100
190 191 201 199 192 191 208 214 193 216 153 167 197 167 196 184 198 197 204 232 198 198 203 173 94 166 132 201 188 181 206 169 139 196 214 229 248 215 234 287 119 97 93 98 90
177 175 186 189 193 196 203 176 197 156 210 178 117 173 182 181 202 207 206 206 202 192 202 202 185 209 208 177 208 215 223 208 215 204 233 227 264 6 133 178 127 119 115 103 89
164 123 174 183 201 183 143 175 165 161 177 181 172 214 197 189 207 208 199 214 194 193 190 170 212 215 234 255 144 208 209 206 211 110 219 208 261 11 98 89 111 119 121 120 104
144 145 157 192 203 192 164 181 161 170 203 176 189 219 274 220 217 196 217 210 210 200 205 168 204 217 222 198 143 206 201 208 207 224 237 226 240 183 134 132 127 122 118 102 71
143 172 171 168 192 170 146 178 177 158 208 203 227 213 213 244 223 203 193 204 195 212 209 210 227 218 233 251 186 200 206 203 205 219 207 228 213 192 179 166 154 145 136 116 51
123 135 141 146 188 166 175 186 175 159 147 195 220 219 227 229 228 236 180 196 206 240 222 241 244 212 220 214 209 237 208 205 210 223 231 248 259 199 169 159 149 161 164 158 114
151 126 142 158 157 186 203 176 185 182 213 208 205 204 217 225 223 228 211 203 204 207 203 233 244 258 220 196 187 235 219 203 213 218 213 219 228 130 145 153 154 165 148 134 126